Regional Weather Roundup
Issued by NWS

Home | Current Version | Previous Version | Graphics & Text | Print | Product List | Glossary On
Versions: 1 2 3 4 5 6 7 8 9 10 11 12 13 14 15 16 17 18 19 20 21 22 23 24 25 26 27
000
ASUS45 KPSR 040610
RWRAZ

ARIZONA HOURLY REGIONAL WEATHER ROUNDUP
NATIONAL WEATHER SERVICE PHOENIX AZ
1100 PM MST TUE MAY 03 2016

NOTE: FAIR INDICATES FEW OR NO CLOUDS BELOW 12,000 FEET WITH NO
SIGNIFICANT WEATHER AND/OR OBSTRUCTIONS TO VISIBILITY.

AZZ001>003-036-040700-
NORTHWEST ARIZONA

CITY           SKY/WX    TMP DP  RH WIND       PRES   REMARKS
BULLHEAD CITY  PTCLDY    79  37  22 E3        29.88S
KINGMAN        PTCLDY    63  40  42 SE14      30.02S
6HR MIN TEMP:  63; 6HR MAX TEMP:  83;

$$

AZZ004>008-015-016-018-040700-
NORTH CENTRAL ARIZONA

CITY           SKY/WX    TMP DP  RH WIND       PRES   REMARKS
GRAND CANYON   PTCLDY    51  30  44 NE5       30.25S
6HR MIN TEMP:  41; 6HR MAX TEMP:  65;

WILLIAMS       CLEAR     45  30  57 SE8       30.31S
PRESCOTT       CLEAR     55  37  50 SW5       30.13F
6HR MIN TEMP:  55; 6HR MAX TEMP:  75;

FLAGSTAFF      CLEAR     38  32  79 NE3       30.26F
6HR MIN TEMP:  38; 6HR MAX TEMP:  60;

PAYSON         CLEAR     61  28  29 NE6       30.16F
PAGE           CLEAR     61  30  31 S3        30.14F
6HR MIN TEMP:  61; 6HR MAX TEMP:  76;

$$

AZZ009>014-017-040700-
NORTHEAST ARIZONA

CITY           SKY/WX    TMP DP  RH WIND       PRES   REMARKS
WINSLOW        CLEAR     52  42  69 W3        30.17S
6HR MIN TEMP:  52; 6HR MAX TEMP:  74;

SAINT JOHNS    CLEAR     57  31  37 CALM      30.21R
6HR MIN TEMP:  51; 6HR MAX TEMP:  72;

WINDOW ROCK    CLEAR     42  34  73 S3        30.30R
6HR MIN TEMP:  42; 6HR MAX TEMP:  67;

SHOW LOW       CLEAR     48  30  49 CALM      30.25R
$$

AZZ023-040700-
GREATER PHOENIX AREA

CITY           SKY/WX    TMP DP  RH WIND       PRES   REMARKS
PHOENIX        CLEAR     81  34  18 E3        29.86S
6HR MIN TEMP:  80; 6HR MAX TEMP:  93;

BUCKEYE        CLEAR     73  27  17 N8        29.87S
LUKE AFB       CLEAR     75  40  28 N6        29.86R
6HR MIN TEMP:  74; 6HR MAX TEMP:  92;

DEER VALLEY    CLEAR     76  32  20 CALM      29.89R
6HR MIN TEMP:  76; 6HR MAX TEMP:  92;

SCOTTSDALE     CLEAR     79  31  17 NE3       29.90S
6HR MIN TEMP:  79; 6HR MAX TEMP:  91;

MESA-GATEWAY   CLEAR     73  30  20 VRB6      29.90S
$$

AZZ027-028-040700-
SOUTHWEST MARICOPA COUNTY AND PINAL COUNTY

CITY           SKY/WX    TMP DP  RH WIND       PRES   REMARKS
CASA GRANDE    CLEAR    N/A N/A N/A MISG        N/A
GILA BEND      CLEAR     75  29  18 SE8       29.84F
6HR MIN TEMP:  74; 6HR MAX TEMP:  92;

$$

AZZ503-504-507>509-040700-
SOUTHEAST ARIZONA

CITY           SKY/WX    TMP DP  RH WIND       PRES   REMARKS
TUCSON         CLEAR     73  25  16 S6        29.98R
6HR MIN TEMP:  73; 6HR MAX TEMP:  90;

DAVIS-MONTHAN  CLEAR     70  28  20 S5        29.96S
6HR MIN TEMP:  70; 6HR MAX TEMP:  88;

NOGALES        CLEAR     63  25  23 NE7       30.04R
6HR MIN TEMP:  63; 6HR MAX TEMP:  86;

SIERRA VISTA   CLEAR     62  23  22 SW6       30.10S
6HR MIN TEMP:  62; 6HR MAX TEMP:  82;

DOUGLAS        CLEAR     73  26  17 E16       30.05S
6HR MIN TEMP:  62; 6HR MAX TEMP:  85;

SAFFORD        CLEAR     66  24  20 E9        30.01R
6HR MIN TEMP:  65; 6HR MAX TEMP:  87;

$$

AZZ020-021-025-026-031-040700-
SOUTHWEST ARIZONA

CITY           SKY/WX    TMP DP  RH WIND       PRES   REMARKS
YUMA           CLEAR     80  38  22 W3        29.83S
6HR MIN TEMP:  79; 6HR MAX TEMP:  94;

$$

CAZ031-033-041-043-047-048-061-040700-
SOUTHERN CALIFORNIA

CITY           SKY/WX    TMP DP  RH WIND       PRES   REMARKS
DOWNTOWN L.A.  CLEAR     58  54  86 CALM      29.96S
6HR MIN TEMP:  58; 6HR MAX TEMP:  70;

L.A. AIRPORT   PTCLDY    58  53  84 NW5       29.96S
6HR MIN TEMP:  57; 6HR MAX TEMP:  64;

SAN DIEGO      CLOUDY    62  54  74 NW6       29.99R
6HR MIN TEMP:  62; 6HR MAX TEMP:  68;

BURBANK        CLEAR     59  53  80 E5        29.96R
6HR MIN TEMP:  59; 6HR MAX TEMP:  81;

ONTARIO        PTCLDY    62  54  74 W5        29.96R
6HR MIN TEMP:  62; 6HR MAX TEMP:  86;

RIVERSIDE      CLEAR     62  52  69 W5        29.96S
6HR MIN TEMP:  62; 6HR MAX TEMP:  85;

PALM SPRINGS   CLEAR     82  40  22 W5        29.87R
6HR MIN TEMP:  82; 6HR MAX TEMP:  94;

EL CENTRO NAS  PTCLDY    76  37  24 SW8       29.83S
6HR MIN TEMP:  73; 6HR MAX TEMP:  94;

IMPERIAL       CLEAR     77  40  26 CALM      29.82R
6HR MIN TEMP:  77; 6HR MAX TEMP:  95;

BLYTHE         PTCLDY    77  27  15 W5        29.83S
6HR MIN TEMP:  77; 6HR MAX TEMP:  94;

NEEDLES        PTCLDY    79  36  21 W8        29.87S
6HR MIN TEMP:  79; 6HR MAX TEMP:  94;

$$

NVZ020-UTZ003-040700-
SOUTHERN NEVADA-UTAH

CITY           SKY/WX    TMP DP  RH WIND       PRES   REMARKS
LAS VEGAS      MOCLDY    76  34  21 SW3       29.91S
6HR MIN TEMP:  76; 6HR MAX TEMP:  85;

SALT LAKE CITY CLEAR     58  38  47 SE5       30.16S
6HR MIN TEMP:  58; 6HR MAX TEMP:  74;

$$

NMZ009-TXZ055-040700-
NEW MEXICO-WEST TEXAS

CITY           SKY/WX    TMP DP  RH WIND       PRES   REMARKS
ALBUQUERQUE    CLEAR     61  30  31 E15       30.25R
6HR MIN TEMP:  61; 6HR MAX TEMP:  73;

EL PASO        CLEAR     69  33  26 NE8       30.14R
6HR MIN TEMP:  69; 6HR MAX TEMP:  82;

$$


........................KEY........................
SKY/WX - SKY CONDITION/WEATHER
TMP    - TEMPERATURE IN FAHRENHEIT
DP     - DEW POINT IN FAHRENHEIT
RH     - RELATIVE HUMIDITY IN PERCENT
WIND   - DIRECTION AND SPEED IN MILES PER HOUR (MPH)
VRB    - VARIABLE WIND DIRECTION
PRES   - MEAN SEA LEVEL PRESSURE IN INCHES OF MERCURY
         F - FALLING PRESSURE   R - RISING PRESSURE
         S - STEADY PRESSURE
VSB    - VISIBILITY IN MILES
HX     - HEAT INDEX IN FAHRENHEIT
WCI    - WIND CHILL INDEX IN FAHRENHEIT
TC     - TEMPERATURE IN CELSIUS WHICH IS ALSO KNOWN AS
         TEMPERATURE IN CENTIGRADE
AFB    - AIR FORCE BASE
         LUKE AFB IS LUKE AIR FORCE BASE
         DAVIS-MONTHAN IS DAVIS-MONTHAN AIR FORCE BASE
NAS    - NAVAL AIR STATION
         EL CENTRO NAS IS EL CENTRO NAVAL AIR STATION
N/A    - NOT AVAILABLE





USA.gov is the U.S. government's official web portal to all federal, state and local government web resources and services.